Погода в Кипрассии

Греция     37°15′01″N   21°40′10″E
темп.,
°C
ветер,
м/с
пор.,
м/с
влажн.,
%
обл.,
%
осадки,
мм/ч
давл.,
гПа
погр.,
м
18 мая, вт
вт1800:00+15з1164100 0.0 101419
03:00+15сз116611 0.0 101338
06:00+15сз11746 0.0 101338
09:00+20зсз2364100 0.0 1014350
12:00+23з36495 0.0 1014686
15:00+23зсз46510 0.0 1014744
18:00+21зсз35580 0.0 1015519
21:00+16сз22844 0.0 101532
19 мая, ср
ср1900:00+15ссз228086 0.0 101535
03:00+15сз236060 0.0 101466
06:00+14ссв12595 0.0 101441
09:00+20сз23399 0.0 1015225
12:00+23зсз33320 0.0 1015534
15:00+22зсз46400 0.0 1015590
18:00+21сз24410 0.0 1014422
21:00+16зсз11612 0.0 101416
20 мая, чт
чт2000:00+15сз11703 0.0 101417
03:00+15сз11835 0.0 101338
06:00+14ссв11855 0.0 101247
09:00+20сз24545 0.0 1013414
12:00+21зсз47425 0.0 1013811
15:00+22зсз46457 0.0 1013834
18:00+20зсз45609 0.0 1012604
21:00+15сз35875 0.0 1013222
21 мая, пт
пт2100:00+14ссз59791 0.0 1013491
03:00+13ссз611795 0.0 1013810
06:00+13ссз6107935 0.0 1012819
09:00+16сз586678 0.1 10131229
12:00+19зсз57560 0.0 10141167
15:00+20зсз68500 0.0 10151069
18:00+18зсз46560 0.0 1015757
21:00+15ссз57700 0.0 1016292
22 мая, сб
сб2200:00+13всв02770 0.0 101751
03:00+12юв01770 0.0 101765
06:00+12вюв11811 0.0 101778
09:00+18зюз01581 0.0 1018435
12:00+20з32525 0.0 1018888
15:00+21з43532 0.0 1018908
18:00+19зсз45610 0.0 1017596
21:00+15сз23870 0.0 1018130